Location: Berg
(47.2344°N, 9.5296°E)
Time: 22:53:26
(UTC+00:00)

ATLAS 2AS CENTAUR R/B - Pass Details

Date: 24 January 2021
Orbit: 947 x 1265 km, 63.7° (Epoch: 13 February)

Event Time Altitude Azimuth Distance (km) Brightness Sun altitude
Rises 18:55:44 0° 297° (WNW) 4,213 6.8 -27.6°
Reaches altitude 10° 18:59:22 10° 311° (NW) 3,221 5.8 -28.2°
Maximum altitude 19:05:16 23° 1° (N) 2,343 4.4 -29.2°
Enters shadow 19:06:55 21° 19° (NNE) 2,401 4.4 -29.5°
